Tracking 35237 objects as of 5-Sep-2026
HD Live streaming from Space Station
objects crossing your sky now

RAINCUBE


RAINCUBE is no longer on orbit


NORAD ID: 43548
Int'l Code: 1998-067NW
Launch date: November 20, 1998
Source: United States (US)
Launch site: TYURATAM MISSILE AND SPACE COMPLEX (TTMTR)
Decay date: 2020-12-23
Your satellite tracking list
Your tracking list is empty




NASA's NSSDC Master Catalog

Two Line Element Set (TLE):
1 43548U 98067NW  20358.54873977  .07367411  12353-4  71823-3 0  9993
2 43548  51.6133  23.4318 0001982  43.8993 316.2190 16.37524600140249
Source of the keplerian elements: AFSPC